Regional Weather Roundup
Issued by NWS

Home | Current Version | Previous Version | Graphics & Text | Print | Product List | Glossary On
Versions: 1 2 3 4 5 6 7 8 9 10 11 12 13 14 15 16 17 18 19 20 21 22 23 24 25 26 27 28 29 30 31 32 33 34 35 36 37 38 39 40 41 42 43 44 45 46 47 48 49 50
000
ASUS43 KIND 270259
RWRIN

WEATHER ROUNDUP FOR INDIANA
NATIONAL WEATHER SERVICE INDIANAPOLIS IN
1000 PM EST FRI DEC 26 2014

NOTE: "FAIR" INDICATES FEW OR NO CLOUDS BELOW 12,000 FEET WITH NO
SIGNIFICANT WEATHER AND/OR OBSTRUCTIONS TO VISIBILITY.

* - STATION DOES NOT REPORT WEATHER SUCH AS PRECIPITATION OR FOG.

+ - STATION NOT QUALITY CONTROLLED BY THE NATIONAL WEATHER SERVICE.
    USE DATA WITH CAUTION...ESPECIALLY DEWPOINT AND RELATIVE
    HUMIDITY OBSERVATIONS.

INZ001>003-010>013-019-020-270400-
NORTHWEST INDIANA

CITY           SKY/WX    TMP DP  RH WIND       PRES   REMARKS
GARY /AIRPORT/ CLOUDY    50  39  66 S12       30.05S
KNOX *+        MOCLDY    44  37  75 S8        30.06S
VALPARAISO     NOT AVBL

$$

LMZ046-743>745-270400-
SOUTHERN LAKE MICHIGAN

STATION/POSITION TIME  TEMP WIND        PRES
                       AIR  DIR/SP/G
                 (UTC) (F)  (DEG/KT/KT) (MB)
MICHIGAN CITY    0200   48  160/  9/ 12   N/A

$$

INZ004-005-014>016-021>024-270400-
NORTH CENTRAL INDIANA

CITY           SKY/WX    TMP DP  RH WIND       PRES   REMARKS
GOSHEN         CLOUDY    44  40  85 S7        30.08S
SOUTH BEND     CLOUDY    48  40  73 S8        30.08S
WARSAW +       CLOUDY    43  39  87 S3        30.09S

$$

INZ006>009-017-018-025>027-270400-
NORTHEAST INDIANA

CITY           SKY/WX    TMP DP  RH WIND       PRES   REMARKS
ANGOLA *+      CLOUDY    41  39  93 S3        30.09R
FORT WAYNE     CLOUDY    43  39  86 S8        30.12R

$$

INZ028-029-035-036-043>045-051>053-270400-
WEST CENTRAL INDIANA

CITY           SKY/WX    TMP DP  RH WIND       PRES   REMARKS
GREENCASTLE +  CLOUDY    48  36  61 S8        30.11S
LAFAYETTE      CLOUDY    47  41  80 S10       30.08S
TERRE HAUTE    CLOUDY    49  41  74 S10       30.12R

$$

INZ030>032-037>040-046>048-054>057-064-065-270400-
CENTRAL INDIANA

CITY           SKY/WX    TMP DP  RH WIND       PRES   REMARKS
CP ATTERBURY + PTCLDY    45  37  76 MISG      30.14R
COLUMBUS       PTCLDY    43  37  81 S8        30.15S
INDIANAPOLIS   CLOUDY    45  39  79 SE10      30.12R
-EAGLE CREEK   CLOUDY    47  40  76 S5        30.11S
KOKOMO *+      CLOUDY    45  39  81 S8        30.10S
MT COMFORT *+  CLOUDY    45  36  70 S7        30.13S
SHELBYVILLE    PTCLDY    44  38  79 S5        30.13S

$$

INZ033-034-041-042-049-050-058-059-270400-
EAST CENTRAL INDIANA

CITY           SKY/WX    TMP DP  RH WIND       PRES   REMARKS
MUNCIE         MOCLDY    45  38  76 MISG      30.12S

$$

INZ060-061-067>069-081>083-085>088-270400-
SOUTHWEST INDIANA

CITY           SKY/WX    TMP DP  RH WIND       PRES   REMARKS
EVANSVILLE     MOCLDY    50  38  63 S9        30.17R
HUNTINGBURG *+ PTCLDY    46  36  66 S8        30.17R

$$

INZ062-063-066-070>080-084-089>092-270400-
SOUTH CENTRAL AND SOUTHEAST INDIANA

CITY           SKY/WX    TMP DP  RH WIND       PRES   REMARKS
BLOOMINGTON    PTCLDY    44  39  82 S5        30.13R

$$



USA.gov is the U.S. government's official web portal to all federal, state and local government web resources and services.